Flag for Algeria Weather past 2 weeks in Constantine, Algeria

Now
77 °F

Clear.


Feels Like: 77 °F
Forecast: 75 / 102 °F
Wind: No wind

Location: Constantine Airport

Current Time: Sep 19, 2014 at 1:50:55 AM

Latest Report: Sep 19, 2014 at 1:30 AM


Visibility: 10 mi

Pressure: 30.04 "Hg

Humidity: 26%

Dew point: 39 °F

Location of ConstantineLocation

Historic Weather in Constantine — Graph

°F

Constantine temperature yesterday

Maximum temperature yesterday: 100 °F (at 12:30 PM)
Minimum temperature yesterday: 73 °F (at 4:30 AM)
Average temperature yesterday: 86 °F

Past Weeks' High & Low Weather Summary

 TemperatureHumidityPressure
High100 °F (Sep 18, 12:30 PM)94% (Sep 11, 6:30 AM)30.15 "Hg (Sep 11, 6:30 AM)
Low59 °F (Sep 13, 5:30 AM)12% (Sep 18, 2:30 PM)29.89 "Hg (Sep 17, 2:30 PM)
Average77 °F47%30.04 "Hg
* Reported Midnight between Sep 3 and Sep 4 — Sep 19 12:30 AM, Constantine, Weather by CustomWeather, © 2014

Note: Actual official high and low records may vary slightly from our data, if they occured in-between our weather recording intervals... More about our weather records

Advertising

Constantine weather history for previous 24 hours

 ConditionsComfort  
Time TempWeatherWind HumidityBarometerVisibility
12:30 AM
Sep 19
73 °FClear.No wind29%30.01 "Hg10 mi
12:00 AM77 °FClear.No wind26%30.01 "Hg10 mi
11:30 PM
Sep 18
77 °FPassing clouds.No wind26%30.04 "Hg5 mi
11:00 PM77 °FPassing clouds.No wind26%30.04 "Hg5 mi
10:30 PM79 °FPassing clouds.No wind26%30.01 "Hg5 mi
9:30 PM82 °FPartly cloudy.No wind21%30.01 "Hg5 mi
9:00 PM84 °FPartly cloudy.No wind20%30.01 "Hg5 mi
8:30 PM82 °FPartly cloudy.No wind23%29.98 "Hg5 mi
8:00 PM84 °FPartly cloudy.No wind22%29.98 "Hg5 mi
7:30 PM84 °FPartly cloudy.No wind23%29.98 "Hg4 mi
7:00 PM86 °FPartly cloudy.No wind20%29.98 "Hg4 mi
6:30 PM90 °FBroken clouds.6 mph17%29.98 "Hg4 mi
6:00 PM93 °FBroken clouds.6 mph15%29.98 "Hg4 mi
5:30 PM95 °FBroken clouds.15 mph14%29.95 "Hg4 mi
4:30 PM97 °FBroken clouds.14 mph13%29.95 "Hg4 mi
4:00 PM97 °FBroken clouds.17 mph13%29.92 "Hg4 mi
3:30 PM99 °FBroken clouds.8 mph12%29.92 "Hg5 mi
3:00 PM99 °FBroken clouds.14 mph12%29.92 "Hg5 mi
2:30 PM99 °FBroken clouds.14 mph12%29.92 "Hg5 mi
2:00 PM99 °FBroken clouds.16 mph14%29.92 "Hg5 mi
1:30 PM99 °FBroken clouds.13 mph15%29.92 "Hg5 mi
1:00 PM99 °FBroken clouds.16 mph15%29.95 "Hg4 mi
12:30 PM100 °FPartly sunny.16 mph15%29.95 "Hg4 mi
12:00 PM95 °FPartly sunny.18 mph16%29.95 "Hg4 mi
11:30 AM91 °FBroken clouds.15 mph20%29.98 "Hg4 mi
11:00 AM91 °FBroken clouds.15 mph18%29.98 "Hg4 mi
10:30 AM93 °FBroken clouds.17 mph17%29.98 "Hg4 mi
10:00 AM91 °FPartly sunny.10 mph21%29.98 "Hg4 mi
9:30 AM86 °FPartly sunny.12 mph24%29.95 "Hg4 mi
9:00 AM82 °FBroken clouds.12 mph26%29.95 "Hg4 mi
8:30 AM79 °FBroken clouds.5 mph30%29.98 "Hg5 mi
8:00 AM77 °FBroken clouds.7 mph34%29.98 "Hg5 mi
7:30 AM77 °FBroken clouds.6 mph32%29.98 "Hg5 mi
7:00 AM79 °FBroken clouds.No wind28%29.98 "Hg5 mi
6:00 AM75 °FPartly cloudy.No wind31%29.98 "Hg5 mi
5:30 AM73 °FPassing clouds.No wind36%29.95 "Hg5 mi
5:00 AM73 °FPassing clouds.No wind33%29.95 "Hg5 mi
4:30 AM73 °FPassing clouds.No wind36%29.95 "Hg5 mi
4:00 AM75 °FPassing clouds.No wind34%29.95 "Hg5 mi
3:30 AM79 °FPassing clouds.6 mph30%29.95 "Hg5 mi
2:30 AM79 °FPassing clouds.9 mph30%29.92 "Hg5 mi
2:00 AM81 °FPassing clouds.6 mph28%29.95 "Hg5 mi
1:30 AM81 °FPassing clouds.7 mph28%29.95 "Hg5 mi
1:00 AM81 °FPassing clouds.3 mph30%29.95 "Hg5 mi
Weather by CustomWeather, © 2014

See weather overviewHow to use our weather pages